Weather History for El Centro, CA

Change the Weather History Date:

Sunday, January 6, 2013

  Actual Average Record
Temperature  
Mean Temperature 51 °F -  
Max Temperature 66 °F 66 °F 80 °F (2006)
Min Temperature 36 °F 44 °F 35 °F (2004)
Degree Days  
Heating Degree Days 14    
Growing Degree Days 1 (Base 50)    
Moisture  
Dew Point 27 °F    
Average Humidity 39    
Maximum Humidity 61    
Minimum Humidity 25    
Precipitation  
Precipitation 0.00 in - - ()
Sea Level Pressure  
Sea Level Pressure 30.11 in    
Wind  
Wind Speed 8 mph (West)    
Max Wind Speed 23 mph    
Max Gust Speed 29 mph    
Visibility 10 miles    
Events Rain    
Averages and records for this station are not official NWS values.
T = Trace of Precipitation, MM = Missing Value Source: NWS Daily Summary

Daily Weather History Graph

Daily Weather History Graph

Search for Another Location

Airport:

Trip Planner

Search our weather history database for the weather conditions in past years. The results will help you decide how hot, cold, wet, or windy it might be!

Date:

Astronomy

Jan. 06, 2013 Rise Set
Actual Time 6:45 AM PST 4:51 PM PST
Civil Twilight 6:18 AM PST 5:18 PM PST
Nautical Twilight 5:48 AM PST 5:49 PM PST
Astronomical Twilight 5:18 AM PST 6:19 PM PST
Moon 1:12 AM PST (1/6) 12:16 PM PST (1/6)
Length of Visible Light 10h 59m
Length of Day
10h 05m
Waning Crescent, 32% of the Moon is Illuminated
Jan 6
Waning Crescent
Jan 11
New
Jan 18
First Quarter
Jan 26
Full
Feb 3
Last Quarter

Hourly Weather History & Observations

Time (PST) Temp. Windchill Dew Point Humidity Pressure Visibility Wind Dir Wind Speed Gust Speed Precip Events Conditions
12:56 AM 37.9 °F 33.5 °F 17.1 °F 43% 30.22 in 10.0 mi WSW 5.8 mph - N/A   Clear
1:56 AM 37.9 °F 33.5 °F 16.0 °F 41% 30.21 in 10.0 mi West 5.8 mph - N/A   Clear
2:56 AM 42.1 °F 38.4 °F 14.0 °F 32% 30.19 in 10.0 mi SW 5.8 mph - N/A   Clear
3:56 AM 41.0 °F 37.1 °F 17.1 °F 38% 30.18 in 10.0 mi WSW 5.8 mph - N/A   Clear
4:56 AM 37.9 °F 32.7 °F 16.0 °F 41% 30.18 in 10.0 mi WSW 6.9 mph - N/A   Clear
5:56 AM 37.9 °F 33.5 °F 18.0 °F 45% 30.17 in 10.0 mi SW 5.8 mph - N/A   Clear
6:56 AM 36.0 °F - 18.0 °F 48% 30.16 in 10.0 mi Calm Calm - 0.00 in   Clear
7:56 AM 41.0 °F 38.0 °F 19.0 °F 41% 30.18 in 10.0 mi West 4.6 mph - N/A   Clear
8:56 AM 48.9 °F - 16.0 °F 27% 30.18 in 10.0 mi Calm Calm - N/A   Clear
9:56 AM 57.9 °F - 26.1 °F 30% 30.16 in 10.0 mi Calm Calm - N/A   Clear
10:56 AM 64.0 °F - 37.9 °F 38% 30.13 in 10.0 mi West 8.1 mph - N/A   Clear
11:56 AM 66.0 °F - 28.9 °F 25% 30.10 in 10.0 mi NNW 4.6 mph - 0.00 in   Clear
12:56 PM 64.9 °F - 33.1 °F 31% 30.07 in 10.0 mi NW 12.7 mph - N/A   Clear
1:56 PM 66.0 °F - 30.0 °F 26% 30.06 in 10.0 mi WSW 11.5 mph - N/A   Clear
2:56 PM 66.0 °F - 28.9 °F 25% 30.05 in 10.0 mi WNW 20.7 mph 28.8 mph 0.00 in Rain Light Rain
3:56 PM 64.0 °F - 30.0 °F 28% 30.05 in 10.0 mi West 21.9 mph - 0.00 in   Clear
4:56 PM 59.0 °F - 30.9 °F 35% 30.05 in 10.0 mi West 16.1 mph - N/A   Partly Cloudy
5:56 PM 57.0 °F - 30.0 °F 36% 30.06 in 10.0 mi West 16.1 mph - N/A   Clear
6:56 PM 53.1 °F - 33.1 °F 47% 30.05 in 10.0 mi SW 11.5 mph - N/A   Clear
7:56 PM 52.0 °F - 33.1 °F 49% 30.05 in 10.0 mi WSW 10.4 mph - N/A   Clear
8:56 PM 53.1 °F - 35.1 °F 50% 30.04 in 10.0 mi WSW 15.0 mph - N/A   Clear
9:56 PM 52.0 °F - 35.1 °F 53% 30.04 in 10.0 mi West 10.4 mph - N/A   Clear
10:56 PM 53.1 °F - 37.0 °F 55% 30.04 in 10.0 mi West 9.2 mph - N/A   Scattered Clouds
11:56 PM 53.1 °F - 39.9 °F 61% 30.04 in 10.0 mi WSW 23.0 mph 27.6 mph 0.00 in Rain Light Rain